Regional Weather Roundup
Issued by NWS

Home | Current Version | Previous Version | Text Only | Print | Product List | Glossary Off
Versions: 1 2 3 4 5 6 7 8 9 10 11 12 13 14 15 16 17 18 19 20 21 22 23 24 25 26 27 28 29 30 31 32 33 34 35 36 37 38 39 40 41 42 43 44 45 46 47 48 49 50

438
ASUS43 KMKX 220259
RWRWI

WISCONSIN REGIONAL WEATHER ROUNDUP
NATIONAL WEATHER SERVICE MILWAUKEE/SULLIVAN WI
1000 PM CDT SAT APR 21 2018

NOTE: "FAIR" INDICATES FEW OR NO CLOUDS BELOW 12,000 FEET WITH NO
SIGNIFICANT WEATHER AND/OR OBSTRUCTIONS TO VISIBILITY.

WIZ001-002-006>008-014>016-023>028-220400-
NORTHWEST WISCONSIN

CITY           SKY/WX    TMP DP  RH WIND       PRES   REMARKS
SUPERIOR ARPT  FAIR      35  26  70 CALM      30.36R
ASHLAND        FAIR      30  26  85 W3        30.37R
HAYWARD        FAIR      34  20  56 CALM      30.37R
SIREN          FAIR      38  20  48 CALM      30.36S
CUMBERLAND     FAIR      39  14  35 CALM      30.36R
RICE LAKE      FAIR      37  26  63 CALM      30.38R
CHETEK         FAIR      38  25  58 CALM      30.36S
LADYSMITH      FAIR      37  28  71 CALM      30.37S
EAU CLAIRE     NOT AVBL
MENOMONIE      FAIR      46  32  58 NW3       30.37R
NEW RICHMOND   FAIR      40  30  67 CALM      30.36R
OSCEOLA        FAIR      38  28  65 CALM      30.38R
$$

WIZ003>005-009-010-017-018-220400-
NORTH CENTRAL WISCONSIN

CITY           SKY/WX    TMP DP  RH WIND       PRES   REMARKS
MANITOWISH WTR FAIR      35  21  57 CALM      30.35R
ARBOR VITAE    FAIR      37  20  51 N3        30.35R
WOODRUFF       FAIR      37  20  51 N3        30.35R
RHINELANDER    FAIR      42  26  53 W5        30.36R
EAGLE RIVER    FAIR      37  13  37 CALM      30.35R
LAND O LAKES   FAIR      35  20  53 CALM      30.37R
PHILLIPS       FAIR      35  23  62 CALM      30.35S
TOMAHAWK       FAIR      35  24  64 CALM      30.37R
MEDFORD        FAIR      37  26  64 CALM      30.36R
MERRILL          N/A     36  26  65 CALM      30.37R
$$

WIZ029-030-035-036-043>047-220400-
CENTRAL WISCONSIN

CITY           SKY/WX    TMP DP  RH WIND       PRES   REMARKS
WAUSAU         FAIR      41  28  60 CALM      30.36R
MOSINEE        CLEAR     45  25  45 CALM      30.38R
MARSHFIELD     FAIR      43  28  55 CALM      30.36R
STEVENS POINT  FAIR      37  26  64 CALM      30.38R
WAUPACA        FAIR      41  30  64 CALM      30.38S
WAUTOMA        FAIR      37  29  72 CALM      30.39R
WISC RAPIDS    FAIR      39  23  52 CALM      30.38R
CAMP DOUGLAS   FAIR      36  30  79 SE5       30.37R WCI  32
$$

WIZ011>013-019>022-031-037>040-048>050-220400-
NORTHEAST WISCONSIN

CITY           SKY/WX    TMP DP  RH WIND       PRES   REMARKS
ANTIGO         FAIR      37  28  70 CALM      30.37R
SHAWANO        FAIR      44  25  47 CALM      30.37R
OCONTO         FAIR      36  23  58 CALM      30.38R
STURGEON BAY   FAIR      44  24  45 S7        30.39R
GREEN BAY      FAIR      40  28  62 S5        30.39R
MANITOWOC      FAIR      37  23  56 CALM      30.40R
APPLETON       CLEAR     45  25  45 CALM      30.37R
CLINTONVILLE   FAIR      40  26  56 CALM      30.37S
OSHKOSH        FAIR      41  32  70 SW3       30.38R
$$

WIZ032>034-041-042-053>061-220400-
SOUTHWEST WISCONSIN

CITY           SKY/WX    TMP DP  RH WIND       PRES   REMARKS
LA CROSSE      CLOUDY    50  35  56 CALM      30.37R
SPARTA         FAIR      38  31  73 CALM      30.38R
VIROQUA        CLOUDY    47  33  59 E6        30.37R
BOSCOBEL       FAIR      42  35  76 CALM      30.39R
PRAIRIE DU CHI FAIR      46  34  62 CALM      30.38R
PLATTEVILLE    FAIR      49  37  63 SE3       30.39R
$$

WIZ056-057-062-063-064-067-068-220400-
SOUTH CENTRAL WISCONSIN

CITY           SKY/WX    TMP DP  RH WIND       PRES   REMARKS
REEDSBURG      CLOUDY    46  32  57 SE3       30.38R
BARABOO/DELLS  CLOUDY    43  29  57 CALM      30.38R
LONE ROCK      NOT AVBL
MINERAL POINT  FAIR      50  34  53 CALM      30.39R
MADISON        MOCLDY    45  34  65 CALM      30.39R
MIDDLETON      FAIR      49  33  54 CALM      30.40R
WATERTOWN      CLOUDY    40  32  71 CALM      30.38S
MONROE         FAIR      46  32  57 E3        30.39R
JANESVILLE     FAIR      46  34  61 CALM      30.40R
$$

WIZ051-052-058>065-066-070>072-220400-
SOUTHEAST WISCONSIN

CITY           SKY/WX    TMP DP  RH WIND       PRES   REMARKS
MILWAUKEE      MOCLDY    45  20  36 CALM      30.40R
WAUKESHA       FAIR      41  25  52 CALM      30.40R
MILWAUKEE/TIMM FAIR      45  12  26 CALM      30.40S
RACINE         FAIR      41  23  48 CALM      30.41R
BURLINGTON     FAIR      44  21  40 CALM      30.39S
KENOSHA        FAIR      42  22  44 CALM      30.39S
FOND DU LAC    FAIR      38  29  70 CALM      30.39R
SHEBOYGAN      FAIR      42  27  55 SW3       30.39R
WEST BEND      FAIR      39  25  56 CALM      30.39S
JUNEAU         FAIR      40  32  72 CALM      30.40R
$$

LSZ147-162-220400-
LAKE SUPERIOR

STATION/POSITION TIME  TEMP    WIND        PRES    WAVE
                       AIR SEA DIR/SP/G            HT/PER
                 (UTC) (F)     (DEG/KT/KT) (MB)    (FT/S)
DEVILS ISLAND    0200   47     130/  5/  5 1028.2R
SAXON HARBOR     0230   34     190/  2/  3 1027.1S
$$

LMZ867-665-643>646-220400-
LAKE MICHIGAN

STATION/POSITION TIME  TEMP    WIND        PRES    WAVE
                       AIR SEA DIR/SP/G            HT/PER
                 (UTC) (F)     (DEG/KT/KT) (MB)    (FT/S)
NORTHPORT PIER   0240   41                 1028.4R
KEWAUNEE LAKESHO 0230   41     260/  3/  3 1028.1R
SHEBOYGAN LAKESH 0200   44     210/  5/  5 1029.3R
PORT WASHINGTON  0240   40      CALM  /  2 1030.1R
MILWAUKEE LAKESH 0230   41      CALM  /  2   N/A
KENOSHA   LAKESH 0200   42                 1029.1
$$

TC  - TEMPERATURE IN CELSIUS
VSB - VISIBILITY IN STATUTE MILES
WCI - WIND CHILL INDEX
HX  - HEAT INDEX





USA.gov is the U.S. government's official web portal to all federal, state and local government web resources and services.